CW3319 Weather Reports


Display with metric or nautical units.
time (UTC)temp
F
wind
direction
speed
MPH
gust
MPH
rain 1hr
in
rain 24hr
in
rain mn
in
humidity
%
barometer
mb
20260901232902 82 273 0.0 0.0 0.00 0.00 0.00 58 1010.1
20260901231902 83 274 0.0 0.0 0.00 0.00 0.00 58 1010.0
20260901230902 83 268 0.0 0.0 0.00 0.00 0.00 56 1009.8
20260901225932 83 267 0.0 0.0 0.00 0.00 0.00 56 1009.7
20260901224902 84 267 0.0 0.0 0.00 0.00 0.00 57 1009.8
20260901223902 84 267 0.0 0.0 0.00 0.00 0.00 59 1009.9
20260901222932 84 267 0.0 0.0 0.00 0.00 0.00 56 1009.9
20260901221902 84 269 0.0 0.0 0.00 0.00 0.00 55 1009.9
20260901220902 85 226 0.0 1.0 0.00 0.00 0.00 53 1009.8
20260901215902 85 207 1.0 2.0 0.00 0.00 0.00 54 1009.8
20260901215003 85 248 0.0 0.0 0.00 0.00 0.00 51 1009.7
20260901213902 85 246 1.0 2.0 0.00 0.00 0.00 50 1009.7
20260901212902 86 254 0.0 1.0 0.00 0.00 0.00 49 1009.7
20260901211902 86 233 1.0 1.0 0.00 0.00 0.00 48 1009.5
20260901210902 86 223 1.0 2.0 0.00 0.00 0.00 44 1009.5
20260901205902 87 220 0.0 1.0 0.00 0.00 0.00 47 1009.5
20260901204932 88 242 1.0 3.0 0.00 0.00 0.00 46 1009.9
20260901203902 87 249 2.0 3.0 0.00 0.00 0.00 44 1010.0
20260901202932 87 218 0.0 1.0 0.00 0.00 0.00 47 1010.1
20260901201902 87 261 0.0 1.0 0.00 0.00 0.00 47 1010.0
20260901200902 86 246 1.0 2.0 0.00 0.00 0.00 49 1010.0
20260901195902 86 256 0.0 0.0 0.00 0.00 0.00 49 1010.2
20260901194903 86 313 0.0 1.0 0.00 0.00 0.00 51 1010.0
20260901193902 87 244 0.0 1.0 0.00 0.00 0.00 49 1010.2
20260901192902 87 244 1.0 1.0 0.00 0.00 0.00 47 1010.3
20260901191932 88 297 0.0 0.0 0.00 0.00 0.00 49 1010.3
20260901190933 90 239 0.0 1.0 0.00 0.00 0.00 48 1010.2
20260901185901 90 292 0.0 0.0 0.00 0.00 0.00 48 1010.1
20260901184902 88 258 0.0 1.0 0.00 0.00 0.00 49 1010.3
20260901183902 87 288 0.0 0.0 0.00 0.00 0.00 51 1010.4
20260901182903 87 259 0.0 0.0 0.00 0.00 0.00 54 1010.6
20260901181932 86 208 0.0 0.0 0.00 0.00 0.00 53 1010.8
20260901180902 86 236 0.0 0.0 0.00 0.00 0.00 54 1010.9
20260901180002 86 273 0.0 0.0 0.00 0.00 0.00 54 1011.0
20260901174932 87 292 0.0 0.0 0.00 0.00 0.00 54 1011.1
20260901173902 87 171 0.0 0.0 0.00 0.00 0.00 51 1011.2
20260901172902 87 124 0.0 1.0 0.00 0.00 0.00 53 1011.2
20260901171902 86 75 0.0 1.0 0.00 0.00 0.00 56 1011.4
20260901170902 86 290 0.0 0.0 0.00 0.00 0.00 55 1011.3
20260901165902 86 325 0.0 0.0 0.00 0.00 0.00 54 1011.5
20260901164902 85 276 0.0 0.0 0.00 0.00 0.00 55 1011.4
20260901163902 84 270 0.0 0.0 0.00 0.00 0.00 58 1011.4
20260901162902 83 260 0.0 1.0 0.00 0.00 0.00 57 1011.5
20260901161902 81 249 0.0 0.0 0.00 0.00 0.00 63 1011.2
20260901160902 80 317 0.0 0.0 0.00 0.00 0.00 63 1011.1
20260901155902 80 237 0.0 0.0 0.00 0.00 0.00 66 1011.3
20260901154902 79 228 0.0 0.0 0.00 0.00 0.00 67 1011.4
20260901153902 78 290 0.0 0.0 0.00 0.00 0.00 70 1011.4
20260901152903 78 271 0.0 0.0 0.00 0.00 0.00 72 1011.4
20260901151901 77 301 0.0 0.0 0.00 0.00 0.00 74 1011.4
20260901150902 76 280 0.0 0.0 0.00 0.00 0.00 75 1011.6
20260901145902 76 262 0.0 0.0 0.00 0.00 0.00 78 1011.7
20260901144902 75 260 0.0 0.0 0.00 0.00 0.00 80 1011.6
20260901143902 75 259 0.0 0.0 0.00 0.00 0.00 82 1011.8
20260901142902 74 252 0.0 0.0 0.00 0.00 0.00 83 1011.8
20260901141902 73 201 0.0 0.0 0.00 0.00 0.00 84 1011.8
20260901140902 72 201 0.0 0.0 0.00 0.00 0.00 86 1011.8
20260901135933 71 201 0.0 0.0 0.00 0.00 0.00 88 1011.8
20260901134902 70 201 0.0 0.0 0.00 0.00 0.00 90 1011.9
20260901133902 70 201 0.0 0.0 0.00 0.00 0.00 91 1012.0
20260901132902 69 201 0.0 0.0 0.00 0.00 0.00 92 1011.9
20260901131932 69 201 0.0 0.0 0.00 0.00 0.00 93 1011.8
20260901130902 68 201 0.0 0.0 0.00 0.00 0.00 94 1011.6
20260901125902 68 201 0.0 0.0 0.00 0.00 0.00 94 1011.7
20260901124902 68 201 0.0 0.0 0.00 0.00 0.00 94 1011.7
20260901123902 67 201 0.0 0.0 0.00 0.00 0.00 94 1011.7
20260901122902 67 201 0.0 0.0 0.00 0.00 0.00 94 1011.5
20260901121902 67 201 0.0 0.0 0.00 0.00 0.00 95 1011.4
20260901120902 67 201 0.0 0.0 0.00 0.00 0.00 94 1011.2
20260901115932 66 201 0.0 0.0 0.00 0.00 0.00 95 1011.2
20260901114902 66 200 0.0 0.0 0.00 0.00 0.00 94 1011.0
20260901113902 66 200 0.0 0.0 0.00 0.00 0.00 94 1010.8
20260901112902 66 200 0.0 0.0 0.00 0.00 0.00 94 1010.7
20260901112002 66 200 0.0 0.0 0.00 0.00 0.00 94 1010.5
20260901110902 66 200 0.0 0.0 0.00 0.00 0.00 93 1010.6
20260901105902 66 200 0.0 0.0 0.00 0.00 0.00 93 1010.4
20260901104902 66 200 0.0 0.0 0.00 0.00 0.00 93 1010.3
20260901103902 67 200 0.0 0.0 0.00 0.00 0.00 93 1010.2
20260901102902 67 200 0.0 0.0 0.00 0.00 0.00 93 1010.1
20260901101902 67 200 0.0 0.0 0.00 0.00 0.00 93 1010.3
20260901100902 67 200 0.0 0.0 0.00 0.00 0.00 93 1010.3
20260901095902 67 311 0.0 0.0 0.00 0.00 0.00 93 1010.2
20260901094902 67 311 0.0 0.0 0.00 0.00 0.00 93 1010.2
20260901093902 67 311 0.0 0.0 0.00 0.00 0.00 93 1010.1
20260901092902 67 311 0.0 0.0 0.00 0.00 0.00 92 1010.1
20260901091902 67 311 0.0 0.0 0.00 0.00 0.00 92 1010.0
20260901090932 68 311 0.0 0.0 0.00 0.00 0.00 92 1010.0
20260901085902 68 311 0.0 0.0 0.00 0.00 0.00 91 1010.2
20260901084902 68 311 0.0 0.0 0.00 0.00 0.00 91 1010.2
20260901083902 68 311 0.0 0.0 0.00 0.00 0.00 91 1010.2
20260901082902 68 311 0.0 0.0 0.00 0.00 0.00 91 1010.1
20260901081902 68 311 0.0 0.0 0.00 0.00 0.00 90 1010.1
20260901080902 69 311 0.0 0.0 0.00 0.00 0.00 90 1010.1
20260901075932 69 311 0.0 0.0 0.00 0.00 0.00 90 1010.1
20260901074902 69 311 0.0 0.0 0.00 0.00 0.00 90 1010.3
20260901073902 69 311 0.0 0.0 0.00 0.00 0.00 89 1010.4
20260901072932 68 311 0.0 0.0 0.00 0.00 0.00 89 1010.3
20260901071902 69 311 0.0 0.0 0.00 0.00 0.00 88 1010.4
20260901070902 69 311 0.0 0.0 0.00 0.00 0.00 88 1010.5
20260901065902 69 311 0.0 0.0 0.00 0.00 0.00 88 1010.5
20260901064902 69 311 0.0 0.0 0.00 0.00 0.00 88 1010.6
20260901063902 69 311 0.0 0.0 0.00 0.00 0.00 87 1010.8
20260901062931 69 311 0.0 0.0 0.00 0.00 0.00 87 1010.7
20260901061902 70 311 0.0 0.0 0.00 0.00 0.00 87 1010.6
20260901060902 70 311 0.0 0.0 0.00 0.00 0.00 86 1010.6
20260901055902 70 311 0.0 0.0 0.00 0.00 0.00 87 1010.6
20260901054902 70 311 0.0 0.0 0.00 0.00 0.00 86 1010.5
20260901053902 70 311 0.0 0.0 0.00 0.00 0.00 87 1010.3
20260901052902 71 311 0.0 0.0 0.00 0.00 0.00 87 1010.2
20260901051901 71 311 0.0 0.0 0.00 0.00 0.00 85 1010.0
20260901050903 72 311 0.0 0.0 0.00 0.00 0.00 83 1010.0
20260901045931 72 311 0.0 0.0 0.00 0.00 0.00 82 1009.8
20260901044903 72 311 0.0 0.0 0.00 0.00 0.00 81 1009.7
20260901043902 72 311 0.0 0.0 0.00 0.00 0.00 80 1009.7
20260901042902 72 311 0.0 0.0 0.00 0.00 0.00 80 1009.6
20260901041902 72 311 0.0 0.0 0.00 0.00 0.00 80 1009.9
20260901040902 72 311 0.0 0.0 0.00 0.00 0.00 79 1009.8
20260901035902 73 311 0.0 0.0 0.00 0.00 0.00 79 1009.8
20260901034902 73 311 0.0 0.0 0.00 0.00 0.00 79 1010.0
20260901033902 73 311 0.0 0.0 0.00 0.00 0.00 78 1009.9
20260901032932 73 311 0.0 0.0 0.00 0.00 0.00 78 1009.8
20260901031902 73 311 0.0 0.0 0.00 0.00 0.00 79 1009.8
20260901030902 74 311 0.0 0.0 0.00 0.00 0.00 76 1009.7
20260901025902 74 311 0.0 0.0 0.00 0.00 0.00 74 1009.6
20260901024902 74 311 0.0 0.0 0.00 0.00 0.00 74 1009.6
20260901023902 75 311 0.0 0.0 0.00 0.00 0.00 75 1009.5
20260901022932 75 311 0.0 0.0 0.00 0.00 0.00 76 1009.5
20260901021902 75 311 0.0 0.0 0.00 0.00 0.00 75 1009.5
20260901020902 76 311 0.0 0.0 0.00 0.00 0.00 73 1009.4
20260901015902 76 312 0.0 0.0 0.00 0.00 0.00 72 1009.4
20260901014902 76 312 0.0 0.0 0.00 0.00 0.00 69 1009.2
20260901013902 78 312 0.0 0.0 0.00 0.00 0.00 68 1009.0
20260901013002 78 312 0.0 0.0 0.00 0.00 0.00 64 1008.9
20260901011902 79 312 0.0 0.0 0.00 0.00 0.00 62 1008.7
20260901010902 80 312 0.0 0.0 0.00 0.00 0.00 60 1008.6
20260901005902 81 312 0.0 0.0 0.00 0.00 0.00 61 1008.6
20260901004932 82 312 0.0 0.0 0.00 0.00 0.00 58 1008.6
20260901003902 82 312 0.0 0.0 0.00 0.00 0.00 57 1008.5
20260901002932 83 312 0.0 0.0 0.00 0.00 0.00 55 1008.6
20260901001902 84 312 0.0 0.0 0.00 0.00 0.00 54 1008.6
20260901000902 84 312 0.0 0.0 0.00 0.00 0.00 53 1008.5
20260831235902 85 312 0.0 0.0 0.00 0.00 0.00 52 1008.4
20260831234902 85 312 0.0 0.0 0.00 0.00 0.00 51 1008.4
20260831233902 86 303 0.0 0.0 0.00 0.00 0.00 49 1008.3